TimeCDT,TemperatureF,Dew PointF,Humidity,Sea Level PressureIn,VisibilityMPH,Wind Direction,Wind SpeedMPH,Gust SpeedMPH,PrecipitationIn,Events,Conditions,WindDirDegrees,DateUTC
12:13 AM,64.4,55.4,73,29.82,10.0,SW,8.1,-,N/A,Rain,Light Rain,220,2013-09-15 05:13:00
12:33 AM,60.8,57.2,88,29.81,7.0,SSW,9.2,-,0.11,Rain,Rain,200,2013-09-15 05:33:00
12:54 AM,60.8,57.2,88,29.82,10.0,SW,8.1,-,N/A,Thunderstorm,Overcast,230,2013-09-15 05:54:00
1:13 AM,60.8,57.2,88,29.82,10.0,Calm,Calm,-,N/A,,Overcast,0,2013-09-15 06:13:00
1:33 AM,60.8,57.2,88,29.82,10.0,Calm,Calm,-,N/A,,Mostly Cloudy,0,2013-09-15 06:33:00
1:53 AM,60.8,57.2,88,29.84,10.0,North,4.6,-,N/A,,Mostly Cloudy,10,2013-09-15 06:53:00
2:13 AM,60.8,57.2,88,29.84,10.0,NE,4.6,-,N/A,,Overcast,40,2013-09-15 07:13:00
2:34 AM,60.8,57.2,88,29.85,10.0,NE,6.9,-,N/A,,Overcast,40,2013-09-15 07:34:00
2:53 AM,60.8,57.2,88,29.85,10.0,East,5.8,-,N/A,Rain,Light Rain,80,2013-09-15 07:53:00
3:13 AM,59.0,57.2,94,29.86,10.0,NE,6.9,-,0.02,Rain,Light Rain,50,2013-09-15 08:13:00
3:34 AM,59.0,57.2,94,29.87,10.0,NE,9.2,-,N/A,,Drizzle,50,2013-09-15 08:34:00
3:53 AM,59.0,57.2,94,29.88,10.0,NNE,9.2,-,N/A,Rain,Rain,30,2013-09-15 08:53:00
4:13 AM,59.0,55.4,88,29.89,10.0,NE,10.4,18.4,N/A,,Overcast,40,2013-09-15 09:13:00
4:33 AM,57.2,55.4,94,29.90,10.0,NE,11.5,20.7,N/A,Rain,Light Rain,40,2013-09-15 09:33:00
4:53 AM,57.2,55.4,94,29.91,10.0,NNE,13.8,21.9,0.01,Rain,Light Rain,30,2013-09-15 09:53:00
5:13 AM,57.2,55.4,94,29.92,10.0,NNE,13.8,20.7,N/A,,Overcast,30,2013-09-15 10:13:00
5:33 AM,57.2,55.4,94,29.93,10.0,NNE,17.3,25.3,N/A,,Overcast,30,2013-09-15 10:33:00
5:53 AM,55.4,55.4,100,29.94,10.0,NE,21.9,29.9,N/A,,Overcast,40,2013-09-15 10:53:00
6:13 AM,55.4,55.4,100,29.96,10.0,NNE,16.1,23.0,N/A,,Overcast,30,2013-09-15 11:13:00
6:33 AM,57.2,53.6,88,29.98,10.0,NE,16.1,26.5,N/A,,Overcast,40,2013-09-15 11:33:00
6:53 AM,57.2,53.6,88,30.00,10.0,NNE,12.7,-,N/A,,Overcast,30,2013-09-15 11:53:00
7:14 AM,57.2,53.6,88,30.01,10.0,NE,16.1,21.9,N/A,,Overcast,40,2013-09-15 12:14:00
7:33 AM,57.2,53.6,88,30.02,10.0,NE,12.7,19.6,N/A,,Overcast,40,2013-09-15 12:33:00
7:53 AM,57.2,53.6,88,30.04,10.0,NE,13.8,23.0,N/A,,Overcast,40,2013-09-15 12:53:00
8:14 AM,57.2,53.6,88,30.05,10.0,NE,13.8,-,N/A,,Overcast,40,2013-09-15 13:14:00
8:33 AM,57.2,53.6,88,30.06,10.0,NE,16.1,20.7,N/A,,Overcast,40,2013-09-15 13:33:00
8:53 AM,57.2,51.8,82,30.07,10.0,NE,10.4,20.7,N/A,,Overcast,40,2013-09-15 13:53:00
9:14 AM,57.2,51.8,82,30.08,10.0,NE,12.7,17.3,N/A,,Overcast,40,2013-09-15 14:14:00
9:33 AM,57.2,53.6,88,30.09,10.0,NE,11.5,17.3,N/A,,Overcast,40,2013-09-15 14:33:00
9:53 AM,57.2,53.6,88,30.10,10.0,NE,12.7,20.7,N/A,,Overcast,50,2013-09-15 14:53:00
10:13 AM,57.2,53.6,88,30.11,10.0,NE,15.0,25.3,N/A,,Overcast,50,2013-09-15 15:13:00
10:33 AM,57.2,53.6,88,30.12,10.0,NE,15.0,20.7,N/A,,Overcast,40,2013-09-15 15:33:00
10:53 AM,57.2,51.8,82,30.12,10.0,NE,13.8,18.4,N/A,,Overcast,40,2013-09-15 15:53:00
11:13 AM,59.0,51.8,77,30.13,10.0,NE,12.7,21.9,N/A,,Overcast,50,2013-09-15 16:13:00
11:33 AM,59.0,51.8,77,30.14,10.0,NE,15.0,20.7,N/A,,Overcast,40,2013-09-15 16:33:00
11:53 AM,57.2,53.6,88,30.15,10.0,NE,11.5,21.9,N/A,,Overcast,50,2013-09-15 16:53:00
12:13 PM,57.2,53.6,88,30.16,10.0,NE,13.8,19.6,N/A,,Overcast,50,2013-09-15 17:13:00
12:34 PM,57.2,53.6,88,30.16,10.0,NE,11.5,18.4,N/A,,Overcast,50,2013-09-15 17:34:00
12:53 PM,59.0,53.6,82,30.17,10.0,NE,11.5,19.6,N/A,,Overcast,40,2013-09-15 17:53:00
1:13 PM,59.0,53.6,82,30.17,10.0,NE,13.8,20.7,N/A,,Overcast,40,2013-09-15 18:13:00
1:33 PM,59.0,53.6,82,30.19,10.0,NE,11.5,18.4,N/A,,Overcast,50,2013-09-15 18:33:00
1:53 PM,59.0,53.6,82,30.19,10.0,NNE,10.4,-,N/A,,Overcast,30,2013-09-15 18:53:00
2:13 PM,60.8,53.6,77,30.20,10.0,NE,15.0,-,N/A,,Overcast,40,2013-09-15 19:13:00
2:34 PM,60.8,53.6,77,30.20,10.0,NE,8.1,16.1,N/A,,Overcast,40,2013-09-15 19:34:00
2:53 PM,62.6,53.6,72,30.20,10.0,NE,9.2,-,N/A,,Overcast,50,2013-09-15 19:53:00
3:13 PM,62.6,53.6,72,30.21,10.0,ENE,5.8,-,N/A,,Overcast,60,2013-09-15 20:13:00
3:30 PM,60.8,53.6,77,30.21,10.0,NE,8.1,-,N/A,,Overcast,40,2013-09-15 20:30:00
3:53 PM,60.8,53.6,77,30.22,10.0,NE,12.7,17.3,N/A,,Overcast,50,2013-09-15 20:53:00
4:14 PM,60.8,53.6,77,30.22,10.0,ENE,9.2,-,N/A,,Overcast,60,2013-09-15 21:14:00
4:33 PM,62.6,53.6,72,30.22,10.0,NE,11.5,-,N/A,,Overcast,40,2013-09-15 21:33:00
4:53 PM,64.4,53.6,68,30.22,10.0,NE,11.5,16.1,N/A,,Mostly Cloudy,50,2013-09-15 21:53:00
5:14 PM,64.4,51.8,64,30.22,10.0,NE,10.4,-,N/A,,Scattered Clouds,40,2013-09-15 22:14:00
5:33 PM,64.4,51.8,64,30.22,10.0,ENE,6.9,-,N/A,,Scattered Clouds,70,2013-09-15 22:33:00
5:53 PM,64.4,50.0,59,30.22,10.0,ENE,5.8,-,N/A,,Scattered Clouds,70,2013-09-15 22:53:00
6:13 PM,62.6,51.8,68,30.22,10.0,NE,5.8,-,N/A,,Clear,40,2013-09-15 23:13:00
6:33 PM,64.4,51.8,64,30.23,10.0,East,8.1,-,N/A,,Scattered Clouds,80,2013-09-15 23:33:00
6:53 PM,62.6,53.6,72,30.24,10.0,East,4.6,-,N/A,,Scattered Clouds,80,2013-09-15 23:53:00
7:13 PM,62.6,53.6,72,30.24,10.0,Calm,Calm,-,N/A,,Scattered Clouds,0,2013-09-16 00:13:00
7:33 PM,60.8,51.8,72,30.24,10.0,ENE,3.5,-,N/A,,Scattered Clouds,60,2013-09-16 00:33:00
7:53 PM,57.2,51.8,82,30.25,10.0,Calm,Calm,-,N/A,,Clear,0,2013-09-16 00:53:00
8:13 PM,57.2,51.8,82,30.26,10.0,Calm,Calm,-,N/A,,Scattered Clouds,0,2013-09-16 01:13:00
8:33 PM,57.2,51.8,82,30.27,10.0,Calm,Calm,-,N/A,,Scattered Clouds,0,2013-09-16 01:33:00
8:53 PM,57.2,51.8,82,30.27,10.0,Calm,Calm,-,N/A,,Clear,0,2013-09-16 01:53:00
9:13 PM,55.4,51.8,88,30.28,10.0,Calm,Calm,-,N/A,,Scattered Clouds,0,2013-09-16 02:13:00
9:33 PM,55.4,51.8,88,30.28,10.0,Calm,Calm,-,N/A,,Scattered Clouds,0,2013-09-16 02:33:00
9:53 PM,55.4,51.8,88,30.29,10.0,ENE,4.6,-,N/A,,Clear,60,2013-09-16 02:53:00
10:13 PM,53.6,51.8,94,30.29,10.0,ENE,4.6,-,N/A,,Clear,60,2013-09-16 03:13:00
10:34 PM,53.6,50.0,88,30.30,10.0,Calm,Calm,-,N/A,,Clear,0,2013-09-16 03:34:00
10:53 PM,53.6,48.2,82,30.30,10.0,ENE,4.6,-,N/A,,Clear,60,2013-09-16 03:53:00
11:13 PM,53.6,48.2,82,30.30,10.0,ENE,4.6,-,N/A,,Scattered Clouds,70,2013-09-16 04:13:00
11:33 PM,53.6,48.2,82,30.31,10.0,ENE,4.6,-,N/A,,Scattered Clouds,70,2013-09-16 04:33:00
11:53 PM,51.8,48.2,88,30.31,10.0,Calm,Calm,-,N/A,,Clear,0,2013-09-16 04:53:00